| time (UTC) | temp C | wind direction | speed KPH | gust KPH | rain 1hr cm | rain 24hr cm | rain mn cm | humidity % | barometer mb |
| 20260507232548 | 30 | 245 | 0.0 | 1.6 | 0.00 | 0.00 | 0.00 | 20 | 998.2 |
| 20260507232048 | 30 | 246 | 0.0 | 1.6 | 0.00 | 0.00 | 0.00 | 20 | 998.2 |
| 20260507231550 | 31 | 222 | 0.0 | 1.6 | 0.00 | 0.00 | 0.00 | 20 | 998.2 |
| 20260507231029 | 31 | 246 | 0.0 | 1.6 | 0.00 | 0.00 | 0.00 | 20 | 998.1 |
| 20260507230533 | 31 | 259 | 0.0 | 1.6 | 0.00 | 0.00 | 0.00 | 19 | 998.2 |
| 20260507230028 | 31 | 246 | 0.0 | 1.6 | 0.00 | 0.00 | 0.00 | 21 | 998.2 |
| 20260507225530 | 31 | 253 | 0.0 | 1.6 | 0.00 | 0.00 | 0.00 | 21 | 998.2 |
| 20260507225027 | 31 | 300 | 0.0 | 0.0 | 0.00 | 0.00 | 0.00 | 21 | 998.2 |
| 20260507224527 | 31 | 243 | 0.0 | 0.0 | 0.00 | 0.00 | 0.00 | 21 | 998.4 |
| 20260507224008 | 31 | 8 | 0.0 | 0.0 | 0.00 | 0.00 | 0.00 | 20 | 998.4 |
| 20260507223509 | 31 | 249 | 0.0 | 0.0 | 0.00 | 0.00 | 0.00 | 20 | 998.4 |
| 20260507223012 | 31 | 47 | 0.0 | 0.0 | 0.00 | 0.00 | 0.00 | 21 | 998.4 |
| 20260507222511 | 31 | 4 | 0.0 | 1.6 | 0.00 | 0.00 | 0.00 | 21 | 998.5 |
| 20260507222005 | 31 | 340 | 0.0 | 1.6 | 0.00 | 0.00 | 0.00 | 21 | 998.6 |
| 20260507221505 | 31 | 256 | 0.0 | 1.6 | 0.00 | 0.00 | 0.00 | 21 | 998.6 |
| 20260507221047 | 31 | 236 | 0.0 | 3.2 | 0.00 | 0.00 | 0.00 | 21 | 998.6 |
| 20260507220547 | 31 | 303 | 0.0 | 3.2 | 0.00 | 0.00 | 0.00 | 22 | 998.7 |
| 20260507220046 | 31 | 134 | 0.0 | 1.6 | 0.00 | 0.00 | 0.00 | 21 | 998.7 |
| 20260507215546 | 31 | 280 | 0.0 | 3.2 | 0.00 | 0.00 | 0.00 | 22 | 998.9 |
| 20260507215047 | 31 | 57 | 0.0 | 3.2 | 0.00 | 0.00 | 0.00 | 22 | 998.9 |
| 20260507214546 | 31 | 98 | 0.0 | 0.0 | 0.00 | 0.00 | 0.00 | 22 | 998.9 |
| 20260507214032 | 31 | 243 | 0.0 | 1.6 | 0.00 | 0.00 | 0.00 | 23 | 999.0 |
| 20260507213533 | 31 | 245 | 0.0 | 1.6 | 0.00 | 0.00 | 0.00 | 22 | 999.1 |
| 20260507213038 | 31 | 246 | 0.0 | 1.6 | 0.00 | 0.00 | 0.00 | 22 | 999.1 |
| 20260507212530 | 31 | 236 | 0.0 | 1.6 | 0.00 | 0.00 | 0.00 | 23 | 999.2 |
| 20260507212032 | 31 | 119 | 0.0 | 1.6 | 0.00 | 0.00 | 0.00 | 23 | 999.3 |
| 20260507211541 | 31 | 246 | 0.0 | 1.6 | 0.00 | 0.00 | 0.00 | 23 | 999.4 |
| 20260507211028 | 31 | 232 | 0.0 | 24.1 | 0.00 | 0.00 | 0.00 | 23 | 999.5 |
| 20260507210528 | 31 | 232 | 8.0 | 24.1 | 0.00 | 0.00 | 0.00 | 22 | 999.6 |
| 20260507210027 | 31 | 221 | 0.0 | 1.6 | 0.00 | 0.00 | 0.00 | 22 | 999.6 |
| 20260507205526 | 31 | 252 | 0.0 | 1.6 | 0.00 | 0.00 | 0.00 | 23 | 999.6 |
| 20260507205025 | 31 | 146 | 0.0 | 1.6 | 0.00 | 0.00 | 0.00 | 23 | 999.7 |
| 20260507204524 | 31 | 226 | 0.0 | 1.6 | 0.00 | 0.00 | 0.00 | 23 | 999.8 |
| 20260507204024 | 31 | 271 | 0.0 | 0.0 | 0.00 | 0.00 | 0.00 | 22 | 999.8 |
| 20260507203523 | 31 | 233 | 0.0 | 1.6 | 0.00 | 0.00 | 0.00 | 23 | 1000.0 |
| 20260507203023 | 31 | 65 | 0.0 | 3.2 | 0.00 | 0.00 | 0.00 | 23 | 999.9 |
| 20260507202522 | 31 | 156 | 0.0 | 0.0 | 0.00 | 0.00 | 0.00 | 23 | 1000.1 |
| 20260507202022 | 31 | 5 | 0.0 | 0.0 | 0.00 | 0.00 | 0.00 | 22 | 1000.1 |
| 20260507201521 | 31 | 65 | 0.0 | 0.0 | 0.00 | 0.00 | 0.00 | 22 | 1000.2 |
| 20260507201021 | 31 | 257 | 0.0 | 0.0 | 0.00 | 0.00 | 0.00 | 22 | 1000.3 |
| 20260507200519 | 32 | 17 | 0.0 | 1.6 | 0.00 | 0.00 | 0.00 | 22 | 1000.3 |
| 20260507200020 | 32 | 246 | 0.0 | 1.6 | 0.00 | 0.00 | 0.00 | 22 | 1000.4 |
| 20260507195518 | 31 | 302 | 0.0 | 0.0 | 0.00 | 0.00 | 0.00 | 24 | 1000.5 |
| 20260507195022 | 32 | 56 | 0.0 | 1.6 | 0.00 | 0.00 | 0.00 | 22 | 1000.7 |
| 20260507194517 | 31 | 269 | 0.0 | 1.6 | 0.00 | 0.00 | 0.00 | 25 | 1000.7 |
| 20260507194057 | 30 | 109 | 0.0 | 1.6 | 0.00 | 0.00 | 0.00 | 25 | 1000.9 |
| 20260507193556 | 31 | 249 | 0.0 | 1.6 | 0.00 | 0.00 | 0.00 | 25 | 1001.1 |
| 20260507193100 | 30 | 248 | 0.0 | 1.6 | 0.00 | 0.00 | 0.00 | 25 | 1001.1 |
| 20260507192554 | 31 | 303 | 0.0 | 1.6 | 0.00 | 0.00 | 0.00 | 25 | 1001.2 |
| 20260507192052 | 31 | 235 | 0.0 | 1.6 | 0.00 | 0.00 | 0.00 | 26 | 1001.4 |
| 20260507191551 | 30 | 250 | 0.0 | 1.6 | 0.00 | 0.00 | 0.00 | 26 | 1001.5 |
| 20260507191039 | 30 | 298 | 0.0 | 1.6 | 0.00 | 0.00 | 0.00 | 26 | 1001.6 |
| 20260507190537 | 30 | 229 | 0.0 | 14.5 | 0.00 | 0.00 | 0.00 | 25 | 1001.7 |
| 20260507190039 | 30 | 239 | 0.0 | 14.5 | 0.00 | 0.00 | 0.00 | 26 | 1001.9 |
| 20260507185536 | 30 | 255 | 0.0 | 1.6 | 0.00 | 0.00 | 0.00 | 25 | 1001.9 |
| 20260507185034 | 30 | 250 | 0.0 | 1.6 | 0.00 | 0.00 | 0.00 | 27 | 1002.0 |
| 20260507184535 | 30 | 259 | 0.0 | 1.6 | 0.00 | 0.00 | 0.00 | 26 | 1002.1 |
| 20260507184037 | 30 | 34 | 0.0 | 1.6 | 0.00 | 0.00 | 0.00 | 27 | 1002.2 |
| 20260507183534 | 30 | 159 | 0.0 | 1.6 | 0.00 | 0.00 | 0.00 | 26 | 1002.3 |
| 20260507183031 | 29 | 229 | 0.0 | 1.6 | 0.00 | 0.00 | 0.00 | 28 | 1002.4 |
| 20260507182531 | 28 | 1 | 0.0 | 1.6 | 0.00 | 0.00 | 0.00 | 26 | 1002.6 |
| 20260507182030 | 29 | 249 | 0.0 | 1.6 | 0.00 | 0.00 | 0.00 | 27 | 1002.6 |
| 20260507181528 | 29 | 246 | 0.0 | 1.6 | 0.00 | 0.00 | 0.00 | 27 | 1002.8 |
| 20260507181027 | 29 | 271 | 0.0 | 1.6 | 0.00 | 0.00 | 0.00 | 29 | 1002.8 |
| 20260507180527 | 30 | 236 | 0.0 | 1.6 | 0.00 | 0.00 | 0.00 | 29 | 1002.8 |
| 20260507180025 | 29 | 229 | 0.0 | 0.0 | 0.00 | 0.00 | 0.00 | 31 | 1003.0 |
| 20260507175523 | 28 | 228 | 0.0 | 0.0 | 0.00 | 0.00 | 0.00 | 31 | 1003.2 |
| 20260507175022 | 28 | 231 | 0.0 | 0.0 | 0.00 | 0.00 | 0.00 | 31 | 1003.3 |
| 20260507174540 | 28 | 356 | 0.0 | 1.6 | 0.00 | 0.00 | 0.00 | 32 | 1003.3 |
| 20260507174019 | 28 | 273 | 0.0 | 1.6 | 0.00 | 0.00 | 0.00 | 32 | 1003.4 |
| 20260507173521 | 28 | 244 | 0.0 | 1.6 | 0.00 | 0.00 | 0.00 | 34 | 1003.5 |
| 20260507173022 | 27 | 280 | 0.0 | 1.6 | 0.00 | 0.00 | 0.00 | 34 | 1003.6 |
| 20260507172517 | 27 | 195 | 0.0 | 1.6 | 0.00 | 0.00 | 0.00 | 33 | 1003.7 |
| 20260507172022 | 27 | 242 | 0.0 | 0.0 | 0.00 | 0.00 | 0.00 | 35 | 1003.7 |
| 20260507171518 | 27 | 238 | 0.0 | 0.0 | 0.00 | 0.00 | 0.00 | 35 | 1003.7 |
| 20260507171115 | 27 | 269 | 0.0 | 0.0 | 0.00 | 0.00 | 0.00 | 36 | 1003.9 |
| 20260507170555 | 27 | 30 | 0.0 | 0.0 | 0.00 | 0.00 | 0.00 | 36 | 1003.9 |
| 20260507170057 | 26 | 278 | 0.0 | 0.0 | 0.00 | 0.00 | 0.00 | 37 | 1004.0 |
| 20260507165555 | 26 | 348 | 0.0 | 0.0 | 0.00 | 0.00 | 0.00 | 36 | 1004.0 |
| 20260507165053 | 26 | 44 | 0.0 | 1.6 | 0.00 | 0.00 | 0.00 | 37 | 1004.2 |
| 20260507164554 | 26 | 246 | 0.0 | 1.6 | 0.00 | 0.00 | 0.00 | 37 | 1004.2 |
| 20260507164051 | 26 | 235 | 0.0 | 1.6 | 0.00 | 0.00 | 0.00 | 37 | 1004.3 |
| 20260507163532 | 25 | 42 | 0.0 | 1.6 | 0.00 | 0.00 | 0.00 | 38 | 1004.4 |
| 20260507163031 | 25 | 245 | 0.0 | 1.6 | 0.00 | 0.00 | 0.00 | 38 | 1004.5 |
| 20260507162531 | 25 | 262 | 0.0 | 1.6 | 0.00 | 0.00 | 0.00 | 37 | 1004.5 |
| 20260507162031 | 25 | 242 | 0.0 | 1.6 | 0.00 | 0.00 | 0.00 | 41 | 1004.5 |
| 20260507161528 | 25 | 263 | 0.0 | 1.6 | 0.00 | 0.00 | 0.00 | 40 | 1004.4 |
| 20260507161028 | 25 | 238 | 0.0 | 1.6 | 0.00 | 0.00 | 0.00 | 43 | 1004.5 |
| 20260507160512 | 24 | 253 | 0.0 | 1.6 | 0.00 | 0.00 | 0.00 | 42 | 1004.5 |
| 20260507160012 | 24 | 253 | 0.0 | 1.6 | 0.00 | 0.00 | 0.00 | 43 | 1004.6 |
| 20260507155507 | 24 | 275 | 0.0 | 0.0 | 0.00 | 0.00 | 0.00 | 44 | 1004.7 |
| 20260507155007 | 23 | 256 | 0.0 | 0.0 | 0.00 | 0.00 | 0.00 | 45 | 1004.8 |
| 20260507154505 | 23 | 249 | 0.0 | 0.0 | 0.00 | 0.00 | 0.00 | 46 | 1004.9 |
| 20260507154005 | 23 | 299 | 0.0 | 1.6 | 0.00 | 0.00 | 0.00 | 46 | 1004.8 |
| 20260507153548 | 23 | 259 | 0.0 | 1.6 | 0.00 | 0.00 | 0.00 | 47 | 1004.9 |
| 20260507153044 | 23 | 236 | 0.0 | 1.6 | 0.00 | 0.00 | 0.00 | 48 | 1004.9 |
| 20260507152553 | 22 | 259 | 0.0 | 1.6 | 0.00 | 0.00 | 0.00 | 48 | 1005.0 |
| 20260507152046 | 22 | 258 | 0.0 | 1.6 | 0.00 | 0.00 | 0.00 | 48 | 1004.9 |
| 20260507151541 | 22 | 169 | 0.0 | 0.0 | 0.00 | 0.00 | 0.00 | 48 | 1005.0 |
| 20260507151040 | 22 | 274 | 0.0 | 0.0 | 0.00 | 0.00 | 0.00 | 50 | 1005.0 |
| 20260507150522 | 22 | 250 | 0.0 | 0.0 | 0.00 | 0.00 | 0.00 | 49 | 1005.0 |
| 20260507150021 | 22 | 248 | 0.0 | 0.0 | 0.00 | 0.00 | 0.00 | 50 | 1005.0 |
| 20260507145520 | 21 | 246 | 0.0 | 0.0 | 0.00 | 0.00 | 0.00 | 51 | 1005.0 |
| 20260507145025 | 21 | 264 | 0.0 | 0.0 | 0.00 | 0.00 | 0.00 | 51 | 1004.8 |
| 20260507144521 | 21 | 263 | 0.0 | 0.0 | 0.00 | 0.00 | 0.00 | 51 | 1004.8 |
| 20260507144019 | 21 | 256 | 0.0 | 1.6 | 0.00 | 0.00 | 0.00 | 50 | 1004.7 |
| 20260507143559 | 21 | 46 | 0.0 | 1.6 | 0.00 | 0.00 | 0.00 | 50 | 1004.8 |
| 20260507143114 | 21 | 67 | 0.0 | 0.0 | 0.00 | 0.00 | 0.00 | 52 | 1004.7 |
| 20260507142601 | 20 | 66 | 0.0 | 0.0 | 0.00 | 0.00 | 0.00 | 53 | 1004.7 |
| 20260507142057 | 20 | 67 | 0.0 | 0.0 | 0.00 | 0.00 | 0.00 | 54 | 1004.7 |
| 20260507141617 | 20 | 68 | 0.0 | 0.0 | 0.00 | 0.00 | 0.00 | 55 | 1004.7 |
| 20260507141054 | 19 | 96 | 0.0 | 0.0 | 0.00 | 0.00 | 0.00 | 57 | 1004.6 |
| 20260507140536 | 18 | 66 | 0.0 | 0.0 | 0.00 | 0.00 | 0.00 | 58 | 1004.6 |
| 20260507140044 | 18 | 66 | 0.0 | 0.0 | 0.00 | 0.00 | 0.00 | 59 | 1004.5 |
| 20260507135533 | 18 | 49 | 0.0 | 0.0 | 0.00 | 0.00 | 0.00 | 61 | 1004.5 |
| 20260507135031 | 18 | 65 | 0.0 | 0.0 | 0.00 | 0.00 | 0.00 | 62 | 1004.4 |
| 20260507134531 | 17 | 70 | 0.0 | 0.0 | 0.00 | 0.00 | 0.00 | 62 | 1004.3 |
| 20260507134029 | 17 | 70 | 0.0 | 0.0 | 0.00 | 0.00 | 0.00 | 63 | 1004.3 |
| 20260507133510 | 17 | 65 | 0.0 | 0.0 | 0.00 | 0.00 | 0.00 | 65 | 1004.2 |
| 20260507133009 | 16 | 65 | 0.0 | 0.0 | 0.00 | 0.00 | 0.00 | 65 | 1004.1 |
| 20260507132508 | 16 | 63 | 0.0 | 0.0 | 0.00 | 0.00 | 0.00 | 64 | 1004.0 |
| 20260507132008 | 16 | 60 | 0.0 | 0.0 | 0.00 | 0.00 | 0.00 | 64 | 1003.9 |
| 20260507131506 | 16 | 56 | 0.0 | 0.0 | 0.00 | 0.00 | 0.00 | 64 | 1003.8 |
| 20260507131007 | 16 | 56 | 0.0 | 0.0 | 0.00 | 0.00 | 0.00 | 64 | 1003.8 |
| 20260507130546 | 16 | 56 | 0.0 | 0.0 | 0.00 | 0.00 | 0.00 | 65 | 1003.7 |
| 20260507130045 | 16 | 79 | 0.0 | 0.0 | 0.00 | 0.00 | 0.00 | 65 | 1003.5 |
| 20260507125545 | 16 | 72 | 0.0 | 0.0 | 0.00 | 0.00 | 0.00 | 65 | 1003.4 |
| 20260507125042 | -17 | 60 | 0.0 | 0.0 | 0.00 | 0.00 | 0.00 | 1003.4 | |
| 20260507124550 | -17 | 0.0 | 0.0 | 0.00 | 0.00 | 0.00 | 1003.4 | ||
| 20260507124039 | -17 | 0.0 | 0.0 | 0.00 | 0.00 | 0.00 | 1003.5 | ||
| 20260507123520 | -17 | 0.0 | 0.0 | 0.00 | 0.00 | 0.00 | 1003.5 | ||
| 20260507123026 | -17 | 0.0 | 0.0 | 0.00 | 0.00 | 0.00 | 1003.5 | ||
| 20260507122518 | -17 | 0.0 | 0.0 | 0.00 | 0.00 | 0.00 | 1003.5 | ||
| 20260507122016 | -17 | 0.0 | 0.0 | 0.00 | 0.00 | 0.00 | 1003.5 | ||
| 20260507121515 | -17 | 0.0 | 0.0 | 0.00 | 0.00 | 0.00 | 1003.6 | ||
| 20260507121013 | -17 | 0.0 | 0.0 | 0.00 | 0.00 | 0.00 | 1003.5 | ||
| 20260507120555 | -17 | 0.0 | 0.0 | 0.00 | 0.00 | 0.00 | 1003.5 | ||
| 20260507120053 | -17 | 0.0 | 0.0 | 0.00 | 0.00 | 0.00 | 1003.5 | ||
| 20260507115551 | -17 | 0.0 | 0.0 | 0.00 | 0.00 | 0.00 | 1003.5 | ||
| 20260507115050 | -17 | 0.0 | 0.0 | 0.00 | 0.00 | 0.00 | 1003.4 | ||
| 20260507114549 | -17 | 0.0 | 0.0 | 0.00 | 0.00 | 0.00 | 1003.4 | ||
| 20260507114051 | -17 | 0.0 | 0.0 | 0.00 | 0.00 | 0.00 | 1003.3 | ||
| 20260507113528 | -17 | 0.0 | 0.0 | 0.00 | 0.00 | 0.00 | 1003.2 | ||
| 20260507113056 | -17 | 0.0 | 0.0 | 0.00 | 0.00 | 0.00 | 1003.1 | ||
| 20260507112527 | -17 | 0.0 | 0.0 | 0.00 | 0.00 | 0.00 | 1003.2 | ||
| 20260507112024 | -17 | 0.0 | 0.0 | 0.00 | 0.00 | 0.00 | 1003.1 | ||
| 20260507111526 | -17 | 0.0 | 0.0 | 0.00 | 0.00 | 0.00 | 1003.1 | ||
| 20260507111020 | -17 | 0.0 | 0.0 | 0.00 | 0.00 | 0.00 | 1003.0 | ||
| 20260507110502 | -17 | 0.0 | 0.0 | 0.00 | 0.00 | 0.00 | 1003.0 | ||
| 20260507110106 | -17 | 0.0 | 0.0 | 0.00 | 0.00 | 0.00 | 1003.1 | ||
| 20260507105558 | -17 | 0.0 | 0.0 | 0.00 | 0.00 | 0.00 | 1003.0 | ||
| 20260507105057 | -17 | 0.0 | 0.0 | 0.00 | 0.00 | 0.00 | 1003.0 | ||
| 20260507104607 | -17 | 0.0 | 0.0 | 0.00 | 0.00 | 0.00 | 1003.1 | ||
| 20260507104055 | -17 | 0.0 | 0.0 | 0.00 | 0.00 | 0.00 | 1003.1 | ||
| 20260507103554 | -17 | 0.0 | 0.0 | 0.00 | 0.00 | 0.00 | 1003.0 | ||
| 20260507103036 | -17 | 0.0 | 0.0 | 0.00 | 0.00 | 0.00 | 1002.9 | ||
| 20260507102535 | 17 | 68 | 0.0 | 0.0 | 0.00 | 0.00 | 0.00 | 62 | 1002.8 |
| 20260507102034 | 17 | 68 | 0.0 | 0.0 | 0.00 | 0.00 | 0.00 | 62 | 1002.8 |
| 20260507101535 | 17 | 68 | 0.0 | 0.0 | 0.00 | 0.00 | 0.00 | 63 | 1002.8 |
| 20260507101033 | 17 | 68 | 0.0 | 0.0 | 0.00 | 0.00 | 0.00 | 63 | 1002.8 |
| 20260507100533 | 17 | 68 | 0.0 | 0.0 | 0.00 | 0.00 | 0.00 | 63 | 1002.7 |
| 20260507100029 | 17 | 68 | 0.0 | 0.0 | 0.00 | 0.00 | 0.00 | 63 | 1002.7 |
| 20260507095516 | 17 | 78 | 0.0 | 0.0 | 0.00 | 0.00 | 0.00 | 63 | 1002.7 |
| 20260507095018 | 17 | 78 | 0.0 | 0.0 | 0.00 | 0.00 | 0.00 | 63 | 1002.7 |
| 20260507094515 | 17 | 81 | 0.0 | 0.0 | 0.00 | 0.00 | 0.00 | 63 | 1002.6 |
| 20260507094017 | 17 | 81 | 0.0 | 0.0 | 0.00 | 0.00 | 0.00 | 63 | 1002.6 |
| 20260507093516 | 17 | 81 | 0.0 | 0.0 | 0.00 | 0.00 | 0.00 | 63 | 1002.7 |
| 20260507093057 | 17 | 80 | 0.0 | 0.0 | 0.00 | 0.00 | 0.00 | 63 | 1002.7 |
| 20260507092556 | 17 | 81 | 0.0 | 0.0 | 0.00 | 0.00 | 0.00 | 61 | 1002.7 |
| 20260507092058 | 17 | 80 | 0.0 | 0.0 | 0.00 | 0.00 | 0.00 | 61 | 1002.7 |
| 20260507091554 | 17 | 80 | 0.0 | 0.0 | 0.00 | 0.00 | 0.00 | 60 | 1002.7 |
| 20260507091056 | 17 | 62 | 0.0 | 0.0 | 0.00 | 0.00 | 0.00 | 59 | 1002.7 |
| 20260507090551 | -17 | 0.0 | 0.0 | 0.00 | 0.00 | 0.00 | 1002.8 | ||
| 20260507085049 | 18 | 68 | 0.0 | 0.0 | 0.00 | 0.00 | 0.00 | 59 | 1002.7 |
| 20260507084557 | 18 | 68 | 0.0 | 0.0 | 0.00 | 0.00 | 0.00 | 59 | 1002.9 |
| 20260507084048 | 18 | 79 | 0.0 | 0.0 | 0.00 | 0.00 | 0.00 | 59 | 1003.0 |
| 20260507083551 | 18 | 69 | 0.0 | 0.0 | 0.00 | 0.00 | 0.00 | 59 | 1003.1 |
| 20260507083048 | 18 | 69 | 0.0 | 0.0 | 0.00 | 0.00 | 0.00 | 59 | 1003.2 |
| 20260507082547 | 18 | 17 | 0.0 | 0.0 | 0.00 | 0.00 | 0.00 | 60 | 1003.2 |
| 20260507082031 | 18 | 63 | 0.0 | 0.0 | 0.00 | 0.00 | 0.00 | 60 | 1003.3 |
| 20260507081529 | 18 | 57 | 0.0 | 0.0 | 0.00 | 0.00 | 0.00 | 59 | 1003.5 |
| 20260507081029 | 18 | 65 | 0.0 | 0.0 | 0.00 | 0.00 | 0.00 | 59 | 1003.5 |
| 20260507080528 | 18 | 71 | 0.0 | 0.0 | 0.00 | 0.00 | 0.00 | 59 | 1003.5 |
| 20260507080028 | 18 | 70 | 0.0 | 0.0 | 0.00 | 0.00 | 0.00 | 59 | 1003.6 |
| 20260507075527 | 18 | 70 | 0.0 | 0.0 | 0.00 | 0.00 | 0.00 | 59 | 1003.7 |
| 20260507075015 | 18 | 70 | 0.0 | 0.0 | 0.00 | 0.00 | 0.00 | 59 | 1003.8 |
| 20260507074510 | 18 | 71 | 0.0 | 0.0 | 0.00 | 0.00 | 0.00 | 59 | 1003.8 |
| 20260507074008 | 18 | 70 | 0.0 | 0.0 | 0.00 | 0.00 | 0.00 | 58 | 1003.8 |
| 20260507073507 | 18 | 71 | 0.0 | 0.0 | 0.00 | 0.00 | 0.00 | 58 | 1003.9 |
| 20260507073006 | 18 | 71 | 0.0 | 0.0 | 0.00 | 0.00 | 0.00 | 57 | 1003.9 |
| 20260507072509 | 19 | 61 | 0.0 | 0.0 | 0.00 | 0.00 | 0.00 | 57 | 1003.9 |
| 20260507072054 | 19 | 67 | 0.0 | 1.6 | 0.00 | 0.00 | 0.00 | 56 | 1004.0 |
| 20260507071552 | 19 | 56 | 0.0 | 1.6 | 0.00 | 0.00 | 0.00 | 56 | 1004.1 |
| 20260507071051 | 19 | 48 | 0.0 | 0.0 | 0.00 | 0.00 | 0.00 | 55 | 1004.2 |
| 20260507070551 | 19 | 66 | 0.0 | 0.0 | 0.00 | 0.00 | 0.00 | 54 | 1004.2 |
| 20260507070104 | 20 | 61 | 0.0 | 1.6 | 0.00 | 0.00 | 0.00 | 54 | 1004.2 |
| 20260507065550 | 20 | 61 | 0.0 | 1.6 | 0.00 | 0.00 | 0.00 | 54 | 1004.0 |
| 20260507065049 | 20 | 339 | 0.0 | 0.0 | 0.00 | 0.00 | 0.00 | 54 | 1003.9 |
| 20260507064649 | 20 | 236 | 0.0 | 0.0 | 0.00 | 0.00 | 0.00 | 54 | 1003.8 |
| 20260507064050 | 20 | 300 | 0.0 | 0.0 | 0.00 | 0.00 | 0.00 | 53 | 1003.7 |
| 20260507063548 | 20 | 284 | 0.0 | 0.0 | 0.00 | 0.00 | 0.00 | 52 | 1003.6 |
| 20260507063054 | 20 | 264 | 0.0 | 0.0 | 0.00 | 0.00 | 0.00 | 51 | 1003.6 |
| 20260507062550 | 21 | 229 | 0.0 | 1.6 | 0.00 | 0.00 | 0.00 | 50 | 1003.6 |
| 20260507062050 | 21 | 238 | 0.0 | 1.6 | 0.00 | 0.00 | 0.00 | 48 | 1003.7 |
| 20260507061548 | 21 | 264 | 0.0 | 3.2 | 0.00 | 0.00 | 0.00 | 45 | 1003.5 |
| 20260507061049 | 22 | 250 | 0.0 | 6.4 | 0.00 | 0.00 | 0.00 | 44 | 1003.5 |
| 20260507060551 | 22 | 134 | 0.0 | 6.4 | 0.00 | 0.00 | 0.00 | 45 | 1003.6 |
| 20260507060048 | 22 | 47 | 0.0 | 3.2 | 0.00 | 0.00 | 0.00 | 45 | 1003.6 |
| 20260507055548 | 22 | 60 | 0.0 | 6.4 | 0.00 | 0.00 | 0.00 | 45 | 1003.7 |
| 20260507055047 | 22 | 43 | 1.6 | 6.4 | 0.00 | 0.00 | 0.00 | 46 | 1003.7 |
| 20260507054548 | 22 | 68 | 0.0 | 6.4 | 0.00 | 0.00 | 0.00 | 46 | 1003.9 |
| 20260507054051 | 22 | 63 | 0.0 | 6.4 | 0.00 | 0.00 | 0.00 | 46 | 1003.9 |
| 20260507053547 | 22 | 57 | 0.0 | 4.8 | 0.00 | 0.00 | 0.00 | 46 | 1003.7 |
| 20260507053047 | 21 | 60 | 0.0 | 4.8 | 0.00 | 0.00 | 0.00 | 46 | 1003.8 |
| 20260507052547 | 21 | 68 | 0.0 | 3.2 | 0.00 | 0.00 | 0.00 | 47 | 1003.8 |
| 20260507052047 | 21 | 53 | 0.0 | 3.2 | 0.00 | 0.00 | 0.00 | 48 | 1003.9 |
| 20260507051547 | 21 | 60 | 0.0 | 1.6 | 0.00 | 0.00 | 0.00 | 48 | 1003.9 |
| 20260507051046 | 21 | 62 | 0.0 | 1.6 | 0.00 | 0.00 | 0.00 | 47 | 1003.7 |
| 20260507050550 | 22 | 70 | 0.0 | 8.0 | 0.00 | 0.00 | 0.00 | 47 | 1003.7 |
| 20260507050103 | 22 | 60 | 0.0 | 8.0 | 0.00 | 0.00 | 0.00 | 46 | 1003.6 |
| 20260507045546 | 22 | 63 | 1.6 | 9.7 | 0.00 | 0.00 | 0.00 | 46 | 1003.4 |
| 20260507045045 | 22 | 79 | 0.0 | 9.7 | 0.00 | 0.00 | 0.00 | 46 | 1003.4 |
| 20260507044528 | 22 | 46 | 1.6 | 16.1 | 0.00 | 0.00 | 0.00 | 46 | 1003.6 |
| 20260507044026 | 22 | 58 | 0.0 | 16.1 | 0.00 | 0.00 | 0.00 | 46 | 1003.8 |
| 20260507043529 | 22 | 73 | 4.8 | 12.9 | 0.00 | 0.00 | 0.00 | 45 | 1003.7 |
| 20260507043026 | 22 | 56 | 4.8 | 9.7 | 0.00 | 0.00 | 0.00 | 45 | 1003.7 |
| 20260507042525 | 22 | 47 | 1.6 | 6.4 | 0.00 | 0.00 | 0.00 | 45 | 1003.6 |
| 20260507042025 | 22 | 124 | 0.0 | 6.4 | 0.00 | 0.00 | 0.00 | 45 | 1003.5 |
| 20260507041508 | 22 | 60 | 0.0 | 8.0 | 0.00 | 0.00 | 0.00 | 45 | 1003.5 |
| 20260507041007 | 22 | 44 | 0.0 | 8.0 | 0.00 | 0.00 | 0.00 | 45 | 1003.4 |
| 20260507040508 | 22 | 39 | 1.6 | 9.7 | 0.00 | 0.00 | 0.00 | 45 | 1003.3 |
| 20260507040007 | 22 | 68 | 1.6 | 12.9 | 0.00 | 0.00 | 0.00 | 45 | 1003.3 |
| 20260507035507 | 22 | 70 | 1.6 | 14.5 | 0.00 | 0.00 | 0.00 | 45 | 1003.3 |
| 20260507035007 | 22 | 62 | 4.8 | 16.1 | 0.00 | 0.00 | 0.00 | 44 | 1003.1 |
| 20260507034549 | 23 | 60 | 9.7 | 17.7 | 0.00 | 0.00 | 0.00 | 44 | 1003.0 |
| 20260507034050 | 23 | 69 | 3.2 | 14.5 | 0.00 | 0.00 | 0.00 | 42 | 1002.8 |
| 20260507033549 | 23 | 79 | 4.8 | 16.1 | 0.00 | 0.00 | 0.00 | 42 | 1002.7 |
| 20260507033049 | 23 | 62 | 3.2 | 16.1 | 0.00 | 0.00 | 0.00 | 41 | 1002.6 |
| 20260507032549 | 24 | 74 | 3.2 | 12.9 | 0.00 | 0.00 | 0.00 | 39 | 1002.5 |
| 20260507032048 | 25 | 48 | 3.2 | 16.1 | 0.00 | 0.00 | 0.00 | 38 | 1002.2 |
| 20260507031533 | 25 | 65 | 6.4 | 16.1 | 0.00 | 0.00 | 0.00 | 37 | 1002.1 |
| 20260507031033 | 25 | 68 | 4.8 | 14.5 | 0.00 | 0.00 | 0.00 | 37 | 1001.8 |
| 20260507030531 | 25 | 70 | 4.8 | 11.3 | 0.00 | 0.00 | 0.00 | 38 | 1001.6 |
| 20260507030036 | 25 | 72 | 1.6 | 14.5 | 0.00 | 0.00 | 0.00 | 38 | 1001.4 |
| 20260507025529 | 25 | 55 | 4.8 | 14.5 | 0.00 | 0.00 | 0.00 | 37 | 1001.2 |
| 20260507025030 | 26 | 150 | 1.6 | 12.9 | 0.00 | 0.00 | 0.00 | 35 | 1001.0 |
| 20260507024516 | 26 | 240 | 1.6 | 14.5 | 0.00 | 0.00 | 0.00 | 35 | 1000.9 |
| 20260507024012 | 26 | 164 | 0.0 | 14.5 | 0.00 | 0.00 | 0.00 | 34 | 1000.7 |
| 20260507023511 | 26 | 170 | 0.0 | 9.7 | 0.00 | 0.00 | 0.00 | 34 | 1000.7 |
| 20260507023010 | 26 | 258 | 0.0 | 8.0 | 0.00 | 0.00 | 0.00 | 34 | 1000.5 |
| 20260507022510 | 26 | 70 | 0.0 | 16.1 | 0.00 | 0.00 | 0.00 | 32 | 1000.6 |
| 20260507022010 | 26 | 201 | 1.6 | 9.7 | 0.00 | 0.00 | 0.00 | 31 | 1000.5 |
| 20260507021602 | 26 | 219 | 1.6 | 12.9 | 0.00 | 0.00 | 0.00 | 31 | 1000.5 |
| 20260507021052 | 27 | 217 | 1.6 | 17.7 | 0.00 | 0.00 | 0.00 | 31 | 1000.3 |
| 20260507020552 | 27 | 42 | 0.0 | 11.3 | 0.00 | 0.00 | 0.00 | 31 | 1000.3 |
| 20260507020052 | 27 | 155 | 0.0 | 8.0 | 0.00 | 0.00 | 0.00 | 29 | 1000.2 |
| 20260507015551 | 28 | 107 | 0.0 | 1.6 | 0.00 | 0.00 | 0.00 | 26 | 1000.1 |
| 20260507015051 | 28 | 236 | 0.0 | 1.6 | 0.00 | 0.00 | 0.00 | 25 | 1000.0 |
| 20260507014534 | 28 | 236 | 0.0 | 1.6 | 0.00 | 0.00 | 0.00 | 26 | 999.7 |
| 20260507014036 | 28 | 236 | 0.0 | 1.6 | 0.00 | 0.00 | 0.00 | 26 | 999.6 |
| 20260507013534 | 28 | 267 | 0.0 | 1.6 | 0.00 | 0.00 | 0.00 | 26 | 999.5 |
| 20260507013037 | 28 | 266 | 0.0 | 1.6 | 0.00 | 0.00 | 0.00 | 25 | 999.5 |
| 20260507012535 | 28 | 260 | 0.0 | 1.6 | 0.00 | 0.00 | 0.00 | 26 | 999.5 |
| 20260507012034 | 28 | 253 | 0.0 | 1.6 | 0.00 | 0.00 | 0.00 | 25 | 999.5 |
| 20260507011522 | 28 | 248 | 0.0 | 1.6 | 0.00 | 0.00 | 0.00 | 25 | 999.5 |
| 20260507011015 | 28 | 249 | 0.0 | 1.6 | 0.00 | 0.00 | 0.00 | 24 | 999.3 |
| 20260507010515 | 29 | 262 | 0.0 | 1.6 | 0.00 | 0.00 | 0.00 | 24 | 999.4 |
| 20260507010028 | 29 | 246 | 0.0 | 1.6 | 0.00 | 0.00 | 0.00 | 24 | 999.4 |
| 20260507005515 | 29 | 249 | 0.0 | 1.6 | 0.00 | 0.00 | 0.00 | 24 | 999.3 |
| 20260507005021 | 30 | 264 | 0.0 | 0.0 | 0.00 | 0.00 | 0.00 | 24 | 999.3 |
| 20260507004557 | 30 | 250 | 0.0 | 0.0 | 0.00 | 0.00 | 0.00 | 24 | 999.2 |
| 20260507004057 | 30 | 249 | 0.0 | 1.6 | 0.00 | 0.00 | 0.00 | 23 | 999.2 |
| 20260507003556 | 30 | 246 | 0.0 | 1.6 | 0.00 | 0.00 | 0.00 | 23 | 999.0 |
| 20260507003057 | 30 | 255 | 0.0 | 1.6 | 0.00 | 0.00 | 0.00 | 23 | 999.0 |
| 20260507002556 | 30 | 246 | 0.0 | 1.6 | 0.00 | 0.00 | 0.00 | 23 | 998.9 |
| 20260507002056 | 30 | 233 | 0.0 | 1.6 | 0.00 | 0.00 | 0.00 | 23 | 998.8 |
| 20260507001538 | 30 | 252 | 0.0 | 1.6 | 0.00 | 0.00 | 0.00 | 23 | 998.7 |
| 20260507001037 | 30 | 246 | 0.0 | 1.6 | 0.00 | 0.00 | 0.00 | 23 | 998.6 |
| 20260507000539 | 30 | 245 | 0.0 | 4.8 | 0.00 | 0.00 | 0.00 | 22 | 998.6 |
| 20260507000038 | 31 | 245 | 0.0 | 4.8 | 0.00 | 0.00 | 0.00 | 23 | 998.5 |
| 20260506235539 | 31 | 267 | 0.0 | 1.6 | 0.00 | 0.00 | 0.00 | 23 | 998.4 |
| 20260506235037 | 30 | 279 | 0.0 | 1.6 | 0.00 | 0.00 | 0.00 | 23 | 998.4 |
| 20260506234520 | 31 | 228 | 0.0 | 1.6 | 0.00 | 0.00 | 0.00 | 24 | 998.3 |
| 20260506234019 | 31 | 233 | 0.0 | 1.6 | 0.00 | 0.00 | 0.00 | 22 | 998.2 |
| 20260506233520 | 31 | 238 | 0.0 | 1.6 | 0.00 | 0.00 | 0.00 | 23 | 998.2 |
| 20260506233019 | 31 | 258 | 0.0 | 1.6 | 0.00 | 0.00 | 0.00 | 22 | 998.1 |